Location: Unspecified
(49.2170°N, 0.0000°E)
Time: 05:22:56
(UTC+00:00)

Vanguard 1 - Pass Details

Date: 26 January 2021
Orbit: 649 x 3834 km, 34.2° (Epoch: 08 March)

Event Time Altitude Azimuth Distance (km) Brightness Sun altitude
Rises 17:30:37 0° 275° (W) 7,626 16.0 -7.3°
Reaches altitude 10° 17:36:04 10° 268° (W) 6,804 15.8 -8.2°
Maximum altitude 17:56:08 39° 211° (SSW) 4,739 13.9 -11.3°
Drops below altitude 10° 18:12:57 10° 150° (SSE) 5,724 13.8 -14.0°
Sets 18:17:05 0° 143° (SE) 6,358 14.0 -14.6°
